Preview of NWS' New Version of Forecast
This preview is not operational and should not be used for support decisions.

Regional Weather Roundup (RWR)

Issued by National Weather Service (NWS)

                            
000
ASUS43 KDTX 171101
RWRMI 
MICHIGAN HOURLY REGIONAL WEATHER ROUNDUP
NATIONAL WEATHER SERVICE DETROIT/PONTIAC MI
700 AM EDT MON JUN 17 2019

NOTE: "FAIR" INDICATES FEW OR NO CLOUDS BELOW 12,000 FEET WITH NO
SIGNIFICANT WEATHER AND/OR OBSTRUCTION TO VISIBILITY.

MIZ047>049-052>055-059>063-066>070-074>076-081>083-171200-
SOUTHEAST LOWER MICHIGAN
  
CITY           SKY/WX    TMP DP  RH WIND       PRES   REMARKS
ADRIAN         CLOUDY    60  56  86 E6        29.98R                  
ALMA           CLOUDY    56  51  84 E3        30.02R                  
ANN ARBOR      CLOUDY    57  55  93 E5        29.98R                  
BAD AXE        HVY RAIN  52  49  87 NE6       30.01R                  
CARO           DRIZZLE   55  49  82 CALM      30.01R                  
DETROIT CITY   CLOUDY    57  50  77 N7        29.99R                  
DETROIT        CLOUDY    58  49  72 N9        29.99R                  
FLINT          CLOUDY    56  50  80 N8        30.00R                  
GROSSE ILE     CLOUDY    58  55  92 N3        29.97R                  
HILLSDALE      CLOUDY    58  56  91 E5        29.98R                  
HOWELL         CLOUDY    56  49  79 CALM      30.00R                  

CITY           SKY/WX    TMP DP  RH WIND       PRES   REMARKS
JACKSON        CLOUDY    59  59 100 NE3       29.98R FOG              
LAMBERTVILLE   CLOUDY    60  58  94 CALM      29.97R                  
LANSING        CLOUDY    56  51  84 NE7       30.00R                  
LAPEER         CLOUDY    55  52  92 CALM      30.00R                  
MASON          CLOUDY    56  53  88 NE3       29.99R                  
MONROE         CLOUDY    59  59  99 N3        29.97R                  
MT. CLEMENS    CLOUDY    56  55  97 CALM      29.98R                  
PONTIAC        CLOUDY    56  50  80 NE5       29.98R                  
PORT HOPE        N/A     52  46  80 E3        30.00R                  
PORT HURON     CLOUDY    55  48  76 CALM      29.99S                  
TRI CITIES     CLOUDY    55  53  93 N3        30.02R                  
MIDLAND        CLOUDY    55  51  86 CALM      30.02R                  
TROY           CLOUDY    57  48  72 N5        30.01R                  
SAGINAW HB     CLOUDY    55  52  88 NE5       30.01R                  
$$
MIZ043>046-050>051-056>058-064>065-071>073-077>080-171200-
SOUTHWEST LOWER MICHIGAN
  
CITY           SKY/WX    TMP DP  RH WIND       PRES   REMARKS
BATTLE CREEK   CLOUDY    60  59  96 NE3       29.98R                  
BENTON HARBOR  FOG       60  59  96 CALM      29.95R VSB 1            
BIG RAPIDS     CLOUDY    55  49  80 E5        30.01R                  
COLDWATER      CLOUDY    59  59 100 E3        29.97R FOG              
FREMONT        CLOUDY    55  48  76 E6        30.00R                  
HOLLAND        CLOUDY    56  54  93 E8        29.98R FOG              
GRAND RAPIDS   CLOUDY    56  50  80 E13       29.99R                  
IONIA          CLOUDY    55  51  87 NE6       30.00R                  
KALAMAZOO      CLOUDY    61  59  93 NE3       29.96R FOG              
LUDINGTON      CLOUDY    52  51  94 CALM      30.00R                  
MARSHALL       CLOUDY    60  60 100 CALM      29.97R                  
MOUNT PLEASANT CLOUDY    55  51  85 E5        30.01R                  
MUSKEGON       CLOUDY    57  50  77 E7G16     30.00R                  
SOUTH HAVEN    CLOUDY    59  58  97 NE3       29.96R FOG              
$$
MIZ016>042-171200-
NORTHERN LOWER MICHIGAN
  
CITY           SKY/WX    TMP DP  RH WIND       PRES   REMARKS
ALPENA         FAIR      46  45  96 CALM      30.02R                  
BEAVER ISLAND  FAIR      45  45 100 CALM      30.02R                  
BELLAIRE       FAIR      46  45  93 CALM      30.03R                  
CADILLAC       FAIR      47  46  94 CALM      30.01R                  
CHARLEVOIX     FAIR      48  47  97 CALM      30.05R                  
FRANKFORT      FAIR      48  45  89 CALM      30.01S                  
GAYLORD        FAIR      43  42  97 CALM      30.02R                  
GRAYLING       CLOUDY    44  44  99 CALM      30.01R                  
HARBOR SPRINGS FAIR      48  47  96 CALM      30.02R                  
HOUGHTON LAKE  FAIR      47  45  93 CALM      30.03R FOG              
MANISTEE       FAIR      48  48 100 E5        30.01R                  
OSCODA         CLOUDY    49  49 100 CALM      30.01S                  
PELLSTON       FAIR      45  43  93 CALM      30.02R                  
ROGERS CITY    FAIR      49  48  95 CALM      30.02S                  
TRAVERSE CITY  MOCLDY    49  47  93 CALM      30.00S                  
$$
MIZ007>008-015-171200-
EASTERN UPPER MICHIGAN
  
CITY           SKY/WX    TMP DP  RH WIND       PRES   REMARKS
KINROSS        FAIR      48  44  86 N7        30.01R                  
MACKINAC ISLAN FAIR      49  48  95 N3        30.01R                  
NEWBERRY       FAIR      46  44  92 N5        30.01S                  
S. S. MARIE    FAIR      49  45  86 CALM      30.00S                  
MUNISING         N/A     39  37  92 S3        30.02R                  
$$
MIZ004>006-011>014-085-171200-
CENTRAL UPPER MICHIGAN
  
CITY           SKY/WX    TMP DP  RH WIND       PRES   REMARKS
ESCANABA       FAIR      44  42  93 CALM      30.03R                  
MENOMINEE      FAIR      47  46  97 CALM      30.03R                  
SAWYER-GWINN   CLEAR     39  36  87 CALM      30.01R                  
$$
MIZ001>003-009>011-084-171200-
WESTERN UPPER MICHIGAN
  
CITY           SKY/WX    TMP DP  RH WIND       PRES   REMARKS
IRON MOUNTAIN  FAIR      44  40  85 CALM      30.01R                  
HOUGHTON       FAIR      46  42  86 NE3       30.00R                  
COPPER HARBOR    N/A     50  43  77 CALM      30.00S                  
IRONWOOD       MOCLDY    49  47  93 CALM      30.00S                  
$$

ABBREVIATIONS USED IN REMARKS
   TC - TEMPERATURE IN CELSIUS
  WCI - WIND CHILL INDEX
   HX - HEAT INDEX
  VSB - VISIBILITY